Weather Roundup
Issued by NWS

Home | Current Version | Previous Version | Text Only | Print | Product List | Glossary On
Versions: 1 2 3 4 5 6 7 8 9 10 11 12 13 14 15 16 17 18 19 20 21 22 23 24 25 26 27 28 29 30 31 32 33 34 35 36 37 38 39 40 41 42 43 44 45 46 47 48 49 50
326
NZUS93 KARX 110810
HRRWXR

CURRENT HOURLY OBSERVATIONS ACROSS
MUCH OF THE UPPER MISSISSIPPI VALLEY
NATIONAL WEATHER SERVICE LA CROSSE WI
200 AM CST SUN DEC 11 2016


...SOUTHEAST MINNESOTA...


CITY           SKY/WX    TMP DP  RH WIND       PRES   REMARKS
ROCHESTER      LGT SNOW  15  13  91 E16       30.00F VSB 3/4 WCI  -1
ROCHESTER/MAYO CLOUDY    17  15  94 E7        30.02F VSB 3/4 WCI   7
WINONA         LGT SNOW  19  18  93 SE9       30.10F WCI   9
AUSTIN         LGT SNOW  19  18  93 SE13      29.98F WCI   7
ALBERT LEA     LGT SNOW  23  21  93 SE14      29.96F WCI  11
DODGE CENTER   LGT SNOW  16  12  86 E13       29.99F WCI   2
PRESTON        LGT SNOW  17  15  91 E7        30.02F WCI   7
OWATONNA       LGT SNOW  16  12  86 E13       29.99F WCI   2
FARIBAULT      LGT SNOW  16  12  86 E9        30.01F VSB 1   WCI   4
$$

...ELSEWHERE IN MINNESOTA...


CITY           SKY/WX    TMP DP  RH WIND       PRES   REMARKS
MINNEAPOLIS    LGT SNOW  15  11  83 E10       30.06F FOG     WCI   2
INTNL FALLS    CLOUDY   -13 -18  78 CALM      30.20F
DULUTH         CLOUDY     5   2  87 NE3       30.12F
RED WING       LGT SNOW  18  12  79 E8        30.07F WCI   7
REDWOOD FALLS  LGT SNOW  14  10  84 E9        29.97F VSB 3/4 WCI   2
MANKATO        LGT SNOW  17  14  88 E12       29.99F FOG     WCI   4
WORTHINGTON    MIX PCPN  19  17  92 SE17      29.86F WCI   4
FAIRMONT       LGT SNOW  20  17  88 SE17      29.93F FOG     WCI   5
$$

...SOUTHWEST WISCONSIN...


CITY           SKY/WX    TMP DP  RH WIND       PRES   REMARKS
LA CROSSE      LGT SNOW  19  16  88 SE5       30.11F FOG     WCI  12
PRAIRIE DU CHI LGT SNOW  22  19  87 E6        30.10F WCI  15
BOSCOBEL       LGT SNOW  22  19  89 NE3       30.13F VSB 1
LONE ROCK      LGT SNOW  21  18  88 E10       30.14F FOG     WCI  10
PLATTEVILLE    CLOUDY    22  22  99 E13       30.10F WCI  10
FORT MC COY    SNOW      17  16  93 E6        30.13F VSB 1/2 WCI   9
CAMP DOUGLAS   LGT SNOW  18  16  93 E8        30.13F FOG     WCI   7
MAUSTON-NEW LI LGT SNOW  19  17  92 E3        30.14F VSB 1
VIROQUA        CLOUDY    18  17  95 E9        30.08F WCI   7
WIS DELLS      LGT SNOW  19  17  92 E6        30.14F WCI  11
$$

...ELSEWHERE IN WISCONSIN...


CITY           SKY/WX    TMP DP  RH WIND       PRES   REMARKS
MILWAUKEE      LGT SNOW  24  20  84 S8        30.23F FOG     WCI  15
MADISON        LGT SNOW  20  18  92 SE9       30.16F FOG     WCI   9
GREEN BAY      LGT SNOW  19  16  88 E7        30.25F FOG     WCI  10
EAU CLAIRE     LGT SNOW  15  12  88 E9        30.11F FOG     WCI   3
BLACK RVR FLS  LGT SNOW  18  14  86 E6        30.13F WCI   9
MEDFORD        LGT SNOW  11   7  85 E6        30.13F WCI   1
WAUSAU         LGT SNOW  12   9  87 E7        30.16F FOG     WCI   1
WIS RAPIDS     LGT SNOW  16  13  88 E7        30.17F FOG     WCI   6
MARSHFIELD     LGT SNOW  14  10  84 E9        30.12F FOG     WCI   2
RICE LAKE      LGT SNOW  13  10  85 E8        30.13F WCI   2
$$

...NORTHEAST IOWA...


CITY           SKY/WX    TMP DP  RH WIND       PRES   REMARKS
WATERLOO       LGT SNOW  22  19  89 SE12      30.01F FOG     WCI  10
DUBUQUE        LGT SNOW  22  20  92 SE13      30.07F FOG     WCI  10
DECORAH        LGT SNOW  19  18  93 SE12G18   30.03F WCI   7
MASON CITY     LGT SNOW  20  17  88 SE15      29.98F FOG     WCI   6
CHARLES CITY   LGT SNOW  21  19  93 SE15      30.01F WCI   8
OELWEIN        LGT SNOW  21  21 100 SE15      30.03F WCI   8
$$

...ELSEWHERE IN IOWA...


CITY           SKY/WX    TMP DP  RH WIND       PRES   REMARKS
DES MOINES     CLOUDY    29  21  72 E9        29.93F WCI  20
IOWA CITY      CLOUDY    27  22  81 E7        30.06F WCI  19
FORT DODGE     CLOUDY    23  18  80 SE14G20   29.92F WCI  11
MARSHALLTOWN   CLOUDY    23  21  92 E14       29.98F WCI  11
CEDAR RAPIDS   CLOUDY    23  23 100 E12       30.03F WCI  12
$$

...NORTHERN ILLINOIS...


CITY           SKY/WX    TMP DP  RH WIND       PRES   REMARKS
CHICAGO-OHARE  LGT SNOW  24  21  88 SE12      30.20F FOG     WCI  13
CHICAGO-MIDWAY LGT SNOW  25  20  81 SE13      30.22F FOG     WCI  14
MOLINE         CLOUDY    27  21  78 E8        30.08F WCI  19
ROCKFORD       LGT SNOW  24  21  88 SE10      30.19F FOG     WCI  14
PEORIA         CLOUDY    30  22  72 S12       30.12F WCI  20
$$

NOTE: "FAIR" INDICATES FEW OR NO CLOUDS BELOW 12,000 FEET WITH NO
SIGNIFICANT WEATHER AND/OR OBSTRUCTIONS TO VISIBILITY. WIND
SPEEDS ARE IN MILES-PER-HOUR.




USA.gov is the U.S. government's official web portal to all federal, state and local government web resources and services.